STARLINK-5566, 56133

Orbit data source: Space-Track

STARLINK-5566, 56133 is a payload satellite owned by SpaceX/Seattle (US) in LEO that was launched on Wed, 29 Mar 2023 UTC via an FALCON 9 launch vehicle from the Air Force Eastern Test Range (AFETR). Payload-class satellites include a variety of spacecraft equipped with specific instruments for various scientific and technological missions. These include communications satellites like Starlink; space stations such as the ISS; scientific satellites like the Hubble; Earth observation satellites from companies like Planet Labs, Umbra, and HawkEye 360; GPS; miniature CubeSats for education and research; and military/defense satellites.

Loading next visibility...
Identifier
56133, 2023-046AT
Orbit
LEO
Country
Flag of USUS
Related business
Manufacturer
SpaceX/Seattle
Mission
Operational Commercial Communications
Bus & Motor
STARLINK, Unknown motor
Mass
305 kg wet, ~290 kg dry
Launch date (UTC)
2023-03-29 (3 years ago)
Launch vehicle
FALCON 9
Launch site
Air Force Eastern Test Range (AFETR)
Object type
Payload
Rocket body
Debris
Shape & HBR
Box + 1 Pan, 10.1 m
Radar Cross Section
11.087 m², Large (>1 m²)

Expand to show TLE details & history
Last TLE update: 3 days ago

TLE from 3 days ago
0 STARLINK-5566
1 56133U 23046AT  26170.69532951  .00000175  00000-0  15874-4 0  9991
2 56133  43.0025 290.6509 0001256 272.1738  87.8970 15.27574887177805
Epoch: 2026-06-19T16:41Z
TLE epoch observation values (Epoch: 2026-06-19T16:41:16.469Z)
Latitude
-0.00002°
Longitude
132.41165°
Altitude
482.809 km
Speed
7.626 km/s
True Right ascension
19h 22m 36s
True Declination
0° 00' 00"
Sunlit
Object was in full shadow at epoch
Visualization orbit readout
Latitude
Unknown
Longitude
Unknown
Altitude
Unknown
Speed
Unknown
Apparent Right ascension
Unknown
Apparent Declination
Unknown
Sunlit
N/A
Visualization observer readout
Local Sidereal Time
21:29:49
Azimuth
Unknown
Elevation
Unknown
Doppler factor
Unknown
Orbital elements
Apogee altitude
485.871 km
Perigee altitude
484.147 km
Semi-major axis
6,863.146 km
Eccentricity
0.00013
Inclination
43.0025°
RAAN
290.6509°
Arg. of periapsis
272.1738°
True anomaly
87.91138°
Mean anomaly
87.897°
Eccentric anomaly
87.90419°
Mean motion
3.81732 °/min
Orbital period
94.31 mins
BSTAR
0.000015874
Loading maneuver chart data...
Computing Atmospheric mass density...
Loading historical data...
Loading historical data...
Loading historical data...
Loading historical data...
Loading historical data...
Loading historical data...
Loading historical data...

Documentation

Showing up to 5 results
|